Weather History for Mullan Pass, ID

Change the Weather History Date:

Friday, October 18, 2013

  Actual Average (K3TH) Record (K3TH)
Temperature  
Mean Temperature 36 °F -  
Max Temperature 42 °F 55 °F 70 °F (2002)
Min Temperature 32 °F 33 °F 28 °F (1999)
Degree Days  
Heating Degree Days 28    
Moisture  
Dew Point 31 °F    
Average Humidity 84    
Maximum Humidity 100    
Minimum Humidity 62    
Precipitation  
Precipitation 0.00 in - - ()
Sea Level Pressure  
Sea Level Pressure 30.13 in    
Wind  
Wind Speed 5 mph (NW)    
Max Wind Speed 8 mph    
Max Gust Speed -    
Visibility 10 miles    
Events      
Averages and records for this station are not official NWS values.
T = Trace of Precipitation, MM = Missing Value Source: NWS Daily Summary

Daily Weather History Graph

Daily Weather History Graph

Search for Another Location

Airport:

Trip Planner

Search our weather history database for the weather conditions in past years. The results will help you decide how hot, cold, wet, or windy it might be!

Date:

Astronomy

Oct. 18, 2013 Rise Set
Actual Time 7:06 AM PDT 5:48 PM PDT
Civil Twilight 6:34 AM PDT 6:19 PM PDT
Nautical Twilight 5:59 AM PDT 6:55 PM PDT
Astronomical Twilight 5:23 AM PDT 7:30 PM PDT
Moon 5:39 PM PDT (10/18) 6:46 AM PDT (10/18)
Length of Visible Light 11h 44m
Length of Day
10h 42m
Full, 100% of the Moon is Illuminated
Oct 18
Full
Oct 18
Full
Oct 26
Last Quarter
Nov 3
New
Nov 9
First Quarter

Hourly Weather History & Observations

Time (PDT) Temp. Windchill Dew Point Humidity Pressure Visibility Wind Dir Wind Speed Gust Speed Precip Events Conditions
12:53 AM 33.1 °F 28.7 °F 32.0 °F 96% 30.15 in 8.0 mi NW 4.6 mph - N/A   Clear
1:53 AM 32.0 °F 26.4 °F 32.0 °F 100% 30.14 in 7.0 mi WNW 5.8 mph - N/A   Clear
2:53 AM 33.1 °F 27.7 °F 30.9 °F 92% 30.14 in 10.0 mi NW 5.8 mph - N/A   Clear
3:53 AM 32.0 °F 27.5 °F 30.9 °F 96% 30.16 in 10.0 mi Variable 4.6 mph - N/A   Clear
4:53 AM 32.0 °F 25.6 °F 30.9 °F 96% 30.16 in 10.0 mi NW 6.9 mph - N/A   Clear
5:53 AM 32.0 °F 26.4 °F 30.0 °F 92% 30.16 in 10.0 mi NW 5.8 mph - N/A   Clear
6:53 AM 32.0 °F 27.5 °F 28.9 °F 88% 30.15 in 10.0 mi WNW 4.6 mph - N/A   Clear
7:53 AM 32.0 °F 26.4 °F 30.0 °F 92% 30.17 in 10.0 mi WNW 5.8 mph - N/A   Clear
8:53 AM 35.1 °F 32.2 °F 30.0 °F 82% 30.17 in 10.0 mi Variable 3.5 mph - N/A   Clear
9:53 AM 36.0 °F 33.3 °F 30.9 °F 82% 30.16 in 10.0 mi NW 3.5 mph - N/A   Clear
10:53 AM 37.9 °F 35.5 °F 30.9 °F 76% 30.16 in 10.0 mi Variable 3.5 mph - N/A   Clear
11:53 AM 39.9 °F - 30.9 °F 70% 30.15 in 10.0 mi Calm Calm - N/A   Clear
12:53 PM 41.0 °F 37.1 °F 28.9 °F 62% 30.14 in 10.0 mi Variable 5.8 mph - N/A   Clear
1:53 PM 41.0 °F 39.0 °F 30.9 °F 67% 30.12 in 10.0 mi Variable 3.5 mph - N/A   Clear
2:53 PM 41.0 °F 36.4 °F 32.0 °F 70% 30.11 in 10.0 mi NW 6.9 mph - N/A   Clear
3:53 PM 39.9 °F 34.5 °F 32.0 °F 73% 30.11 in 10.0 mi NW 8.1 mph - N/A   Clear
4:53 PM 37.9 °F 32.1 °F 32.0 °F 79% 30.12 in 10.0 mi NW 8.1 mph - N/A   Clear
5:53 PM 35.1 °F 30.1 °F 30.0 °F 82% 30.11 in 10.0 mi WNW 5.8 mph - N/A   Clear
6:53 PM 34.0 °F 27.2 °F 30.0 °F 85% 30.12 in 10.0 mi NW 8.1 mph - N/A   Clear
7:53 PM 34.0 °F 28.0 °F 30.9 °F 89% 30.12 in 10.0 mi NW 6.9 mph - N/A   Clear
8:53 PM 34.0 °F 27.2 °F 30.9 °F 89% 30.10 in 10.0 mi NW 8.1 mph - N/A   Clear
9:53 PM 34.0 °F 28.0 °F 30.9 °F 89% 30.10 in 10.0 mi NW 6.9 mph - N/A   Clear
10:53 PM 33.1 °F 28.7 °F 30.0 °F 89% 30.09 in 10.0 mi NW 4.6 mph - N/A   Clear
11:53 PM 33.1 °F 26.9 °F 30.0 °F 89% 30.07 in 10.0 mi NW 6.9 mph - N/A   Clear